全球星 M034星 (GLOBALSTAR M034)

导读

GLOBALSTAR M034于1999年11月22日发射,是全球星(Globalstar)卫星通信系统的组成部分,归属全球星项目运营。该系统旨在提供全球范围的低轨道卫星移动通信服务,覆盖偏远地区,支持语音通信和数据传输服务。M034作为第一代全球星卫星之一,为构建全球卫星通信网络,补充地面通信盲区,发挥了重要作用。

Basic Information
目录编号:
25962
目录名称:
GLOBALSTAR M034
国际标识:
1999-062B
轨道中心:
EARTH
卫星名称:
全球星 M034星
卫星全名:
全球星 M034星 (GLOBALSTAR M034)
卫星状态:
在轨 (已飞行9745 天)
发射日期:
1999-11-22 UTC
国别 :
(GLOB)
星等 :
--
Orbit Information
数据来源 国际轨道数据 AOE轨道数据
星历时间 2026-07-27T21:02:02+0800
1天前
查看轨道信息
2026-07-28T10:00:00+0800
12小时前
查看轨道信息
半长轴 8152.292km 8152.293km
偏心率 0.0014991 0.0015023
轨道倾角 51.989° 51.989°
近地点辐角 86.643° 87.537°
升交点赤经 37.681° 36.277°
平近点角 306.987° 81.070°
近地点 1761.933km 1761.908km
远地点 1786.377km 1786.404km
周期 122.090分钟 122.090分钟
每日圈数 11.7946 11.794597
Detailed Information
固有亮度:
5
最大亮度:
7.9
平衡模式:
三轴稳定
覆盖范围:
全球
运营商:
全球星公司
运营商所在国:
美国
使用方式:
暂无
Satellite Introduction
全球星星座由48颗卫星加8颗备份星组成。这些卫星分布在8个倾角为52度的圆形轨道平面上,每个轨道平面6颗卫星,另有1 颗备用星。轨道高度约为1414km,传输时延和处理时延小于300ms,整个系统的覆盖区为南北纬70度以内的地区。该卫星已退役。
2D Orbit Map
3D Orbit Map
Orbit Altitude Analysis Chart
Orbit Inclination Analysis Chart
Orbit Comprehensive Analysis Chart
View Comprehensive Chart